Home > Weather > Graz > Past weeks

Flag for Austria Weather for the Past 2 Weeks in Graz, Styria, Austria

Now
52 °F

Scattered clouds.


Feels Like: 51 °F
Forecast: 32 / 52 °F
Wind: 3 mph from North

Location: Graz-Thalerhof-Flughafen

Current Time: Feb 8, 2016 at 1:43:48 PM

Latest Report: Feb 8, 2016 at 12:50 PM


Visibility: N/A

Pressure: 29.86 "Hg

Humidity: 62%

Dew point: 39 °F

Location of GrazLocation

Historic Weather in Graz — Graph

°F

Graz Temperature Yesterday

Maximum temperature yesterday: 50 °F (at 11:50 AM)
Minimum temperature yesterday: 27 °F (at 1:20 AM)
Average temperature yesterday: 42 °F

High & Low Weather Summary for the Past Weeks

 TemperatureHumidityPressure
High61 °F (Jan 28, 2:20 PM)100% (Jan 25, 4:50 AM)30.51 "Hg (Jan 25, 4:50 AM)
Low23 °F (Jan 27, 4:50 AM)31% (Feb 4, 1:20 PM)29.86 "Hg (Jan 30, 10:50 PM)
Average39 °F80%30.17 "Hg
* Reported Jan 24 12:20 PM — Feb 8 12:20 PM, Graz, Weather by CustomWeather, © 2016

Note: Actual official high and low records may vary slightly from our data, if they occured in-between our weather recording intervals... More about our weather records

Advertising

Graz Weather History for the Previous 24 Hours

 ConditionsComfort  
Time TempWeatherWind HumidityBarometerVisibility
12:20 PM
Mon, Feb 8
48 °FPartly sunny.1 mph76%29.89 "HgN/A
11:50 AM45 °FPartly sunny.3 mph81%29.92 "HgN/A
11:20 AM45 °FPartly sunny.1 mph81%29.92 "HgN/A
10:50 AM43 °FPartly sunny.No wind87%29.92 "HgN/A
10:20 AM43 °FPartly sunny.2 mph87%29.92 "HgN/A
9:50 AM41 °FPartly sunny.1 mph93%29.92 "HgN/A
9:20 AM41 °FPartly sunny.1 mph87%29.92 "HgN/A
8:50 AM39 °FBroken clouds.1 mph93%29.92 "HgN/A
8:20 AM39 °FBroken clouds.1 mph93%29.92 "HgN/A
7:50 AM37 °FPartly sunny.3 mph93%29.92 "HgN/A
7:20 AM39 °FPartly sunny.1 mph87%29.92 "HgN/A
6:50 AM39 °FPassing clouds.5 mph87%29.92 "HgN/A
6:20 AM37 °FClear.5 mph93%29.92 "Hg10 mi
5:50 AM39 °FClear.6 mph87%29.92 "Hg10 mi
5:20 AM37 °FPassing clouds.6 mph93%29.92 "HgN/A
4:50 AM39 °FPassing clouds.5 mph87%29.92 "HgN/A
4:20 AM37 °FPassing clouds.5 mph93%29.92 "HgN/A
3:50 AM39 °FPassing clouds.5 mph87%29.92 "HgN/A
3:20 AM37 °FPassing clouds.5 mph93%29.92 "HgN/A
2:50 AM39 °FPassing clouds.6 mph87%29.92 "HgN/A
2:20 AM39 °FPassing clouds.6 mph93%29.92 "HgN/A
1:50 AM41 °FPassing clouds.3 mph87%29.92 "HgN/A
1:20 AM39 °FPassing clouds.5 mph87%29.92 "HgN/A
12:50 AM39 °FOvercast.1 mph93%29.92 "HgN/A
12:20 AM43 °FOvercast.2 mph81%29.92 "HgN/A
11:50 PM
Sun, Feb 7
45 °FPassing clouds.2 mph76%29.92 "HgN/A
11:20 PM43 °FPassing clouds.2 mph81%29.92 "HgN/A
10:50 PM46 °FPassing clouds.2 mph71%29.92 "HgN/A
10:20 PM46 °FPassing clouds.5 mph71%29.92 "HgN/A
9:50 PM45 °FPassing clouds.2 mph76%29.92 "HgN/A
9:20 PM46 °FPassing clouds.2 mph71%29.89 "HgN/A
8:50 PM48 °FPassing clouds.5 mph71%29.89 "HgN/A
8:20 PM48 °FPartly cloudy.3 mph66%29.92 "HgN/A
7:50 PM48 °FPartly cloudy.3 mph66%29.92 "HgN/A
7:20 PM46 °FPartly cloudy.5 mph71%29.92 "HgN/A
6:50 PM46 °FPartly cloudy.5 mph71%29.92 "HgN/A
6:20 PM46 °FPartly cloudy.2 mph71%29.89 "HgN/A
5:50 PM45 °FPartly cloudy.3 mph71%29.89 "HgN/A
5:20 PM48 °FPassing clouds.8 mph66%29.89 "HgN/A
4:50 PM48 °FPartly sunny.8 mph66%29.89 "HgN/A
4:20 PM48 °FBroken clouds.7 mph66%29.89 "HgN/A
3:50 PM50 °FBroken clouds.9 mph58%29.89 "HgN/A
3:20 PM50 °FBroken clouds.6 mph58%29.89 "HgN/A
2:50 PM50 °FBroken clouds.5 mph58%29.89 "HgN/A
2:20 PM50 °FBroken clouds.9 mph58%29.89 "HgN/A
1:50 PM50 °FBroken clouds.9 mph58%29.89 "HgN/A
1:20 PM50 °FBroken clouds.7 mph58%29.89 "HgN/A
Weather by CustomWeather, © 2016

See weather overviewHow to use our weather pages